Home   Weather   Alexandria   Past weeks

Flag for Egypt Past Weather in Alexandria, Egypt — Yesterday and Last 2 Weeks

Now
77 °F

Clear.


Feels Like: 78 °F
Forecast: 77 / 89 °F
Wind: 3 mph from Southwest

Location: Alexandria / Nouzha

Current Time: Aug 21, 2017 at 8:36:03 am

Latest Report: Aug 21, 2017 at 7:00 am


Visibility: 4 mi

Pressure: 29.86 "Hg

Humidity: 89%

Dew Point: 73 °F

Location of AlexandriaLocation

Past Weather in Alexandria — Graph

°F

Alexandria Temperature Yesterday

Maximum temperature yesterday: 88 °F (at 12:00 pm)
Minimum temperature yesterday: 73 °F (at 6:00 am)
Average temperature yesterday: 82 °F

High & Low Weather Summary for the Past Weeks

 TemperatureHumidityPressure
High91 °F (Aug 13, 12:00 pm)89% (Aug 21, 2:00 am)29.86 "Hg (Aug 21, 2:00 am)
Low70 °F (Aug 16, 1:00 am)32% (Aug 18, 8:00 pm)29.68 "Hg (Aug 12, 3:00 am)
Average83 °F62%29.78 "Hg
* Reported Aug 6 7:00 am — Aug 21 7:00 am, Alexandria. Weather by CustomWeather, © 2017

Note: Actual official high and low records may vary slightly from our data, if they occured in-between our weather recording intervals... More about our weather records

Advertising

Alexandria Weather History for the Previous 24 Hours

Scroll right to see more
 ConditionsComfort  
Time TempWeatherWind HumidityBarometerVisibility
7:00 am
Mon, Aug 21
77 °FClear.3 mph89%29.86 "Hg4 mi
6:00 am75 °FClear.3 mph89%29.83 "Hg4 mi
5:00 am75 °FClear.2 mph89%29.83 "Hg4 mi
4:00 am75 °FClear.3 mph89%29.83 "Hg4 mi
3:00 am75 °FClear.2 mph89%29.83 "Hg10 mi
2:00 am75 °FClear.2 mph89%29.83 "Hg10 mi
1:00 am79 °FClear.3 mph74%29.83 "Hg10 mi
12:00 am79 °FClear.3 mph74%29.83 "Hg10 mi
11:00 pm
Sun, Aug 20
79 °FClear.2 mph74%29.83 "Hg10 mi
10:00 pm81 °FClear.6 mph66%29.83 "Hg10 mi
9:00 pm81 °FClear.8 mph66%29.83 "Hg10 mi
8:00 pm82 °FClear.7 mph62%29.83 "Hg10 mi
7:00 pm82 °FClear.8 mph66%29.83 "Hg10 mi
6:00 pm84 °FSunny.9 mph58%29.83 "Hg10 mi
5:00 pm86 °FSunny.13 mph52%29.83 "Hg10 mi
4:00 pm86 °FSunny.12 mph52%29.83 "Hg10 mi
3:00 pm88 °FPassing clouds.14 mph43%29.86 "HgN/A
2:00 pm88 °FPassing clouds.14 mph43%29.86 "HgN/A
1:00 pm88 °FPassing clouds.13 mph52%29.86 "HgN/A
12:00 pm88 °FPassing clouds.9 mph49%29.86 "HgN/A
11:00 am86 °FScattered clouds.7 mph55%29.86 "HgN/A
10:00 am86 °FScattered clouds.6 mph55%29.86 "HgN/A
9:00 am86 °FScattered clouds.2 mph55%29.86 "HgN/A
8:00 am82 °FPassing clouds.5 mph62%29.86 "HgN/A
Weather by CustomWeather, © 2017

See weather overviewHow to use our weather pages